Showing default

LEMUR 2 TINYKEV, 43883

Orbit data source: Space-Track

LEMUR 2 TINYKEV, 43883 is a payload satellite owned by Spire/Lux (US) in SSO that was launched on Thu, 27 Dec 2018 UTC via a SOYUZ-2-1A launch vehicle from the Vostochny Cosmodrome (VOSTO). Payloads include a variety of satellites, spacecraft, and rockets equipped with specific instruments for various scientific and technological missions. These include communications satellites like Starlink; space stations such as the ISS; scientific satellites like the Hubble; Earth observation satellites from companies like Planet Labs, Umbra, and HawkEye 360; GPS; miniature CubeSats for education and research; and military/defense satellites.

Loading next visibility...
LEMUR 2 TINYKEV details
Identifier
43883, 2018-111H
Orbit
SSO
Last TLE update13 hours ago
Origin
Flag of USSpire/Lux (US)
ManufacturerSpire/Glasgow
MissionOperational Commercial Com/MetRO
Bus & MotorCUBESAT 3U, Unknown motor
Mass4.6 kg wet, 4.6 kg dry
Launch date (UTC)
2018-12-27 (6 years ago)
Launch vehicle
SOYUZ-2-1A
Launch site
Vostochny Cosmodrome (VOSTO)
Object type
Payload
Rocket body
Debris
Shape & HBRBox + 2 Pan, 0.7 m
Radar Cross Section0.124 m², Small (<0.1 m²)

Expand to show TLE details & history

TLE from 13 hours ago
0 LEMUR 2 TINYKEV
1 43883U 18111H   24361.36600386  .00992832  41449-3  34322-2 0  9990
2 43883  97.5594 282.1812 0011572 102.3757 257.8811 15.89453605329509
Epoch: 2024-12-26T08:47Z
Definitive object data (Epoch: 2024-12-26T08:47:02.733Z)
Latitude-0.00002°
Longitude55.07338°
Altitude308.625 km
Speed7.722 km/s
True Right ascension18h 48m 43s
True Declination0° 00' 00"
Sunlit
Object was in daylight at TLE epoch
Visualization TLE readout
Latitude-11.02319°
Longitude-125.80231°
Altitude306.007 km
Speed7.724 km/s
Apparent Right ascension07h 43m 50s
Apparent Declination-25° 59' 11"
Sunlit
Object is in full shadow
Visualization observer readout
Local Sidereal Time21:03:03
Azimuth55.849° ENE
Elevation-68.405°
Doppler factor1
Orbital elements
Apogee altitude308.423 km
Perigee altitude292.966 km
Semi-major axis6,678.831 km
Eccentricity0.0011572
Inclination97.5594°
RAAN282.1812°
Arg. of periapsis102.3757°
True anomaly257.75149°
Mean anomaly257.8811°
Eccentric anomaly257.81629°
Mean motion3.97642 °/min
BSTAR0.0034322
Orbital period90.53 mins
Loading maneuver chart data...
Loading historical data...
Loading historical data...
Loading historical data...
Loading historical data...
Loading historical data...
Loading historical data...
Loading historical data...

LEMUR 2 TINYKEV Visibility forecast

Observer location: undefined°, undefined

Span
Click to sort rows by Start time (UTC) header in descending order
Start Az.
Max El. time (UTC)
Max El. Az.
Max El.
End time (UTC)
End Az.
4 mins2024-12-27 07:59:01.775Z3.812° NNE2024-12-27 08:01:01.775Z286.909° WNW41.203°2024-12-27 08:03:01.775Z203.781° SW
|